Powrót do katalogu

COSMOS 1249 COOLANT

AktywnyLEO
NORAD 26507·DEBRIS·🇷🇺 Russia

Wystrzelony Mar 5, 1981 z Baikonur Cosmodrome

Loading…

Następne Przeloty (najbliższe 24 godziny)

TLE

NieaktualneSource: Space-Track

Epoka: Aug 31, 2026, 07:23 UTC

1 26507U 81021J   26243.30813014  .00000172  00000-0  19703-3 0  9992
2 26507  64.9584  74.4811 0060817 236.5415 299.1083 13.93768450343896

Śledź COSMOS 1249 COOLANT w czasie rzeczywistym z AllMySat

Download on the App Store